This is the latest recevied weather packets stored in our database for station/object K1BES. If no packets are shown the sender has not sent any weather packets the latest 10 day(s).
| Time | Temp. | Humidity | Pressure | Rain* | Wind** | Luminosity | Snow |
|---|---|---|---|---|---|---|---|
| 1788310164 | 25.56° C | 96% | 1018 hPa | 0 mm | - | 0 W/m² | - |
| 1788309863 | 25.56° C | 96% | 1018.1 hPa | 0 mm | - | 0 W/m² | - |
| 1788309558 | 25.56° C | 96% | 1017.9 hPa | 0 mm | - | 0 W/m² | - |
| 1788309253 | 25.56° C | 96% | 1017.8 hPa | 0 mm | - | 0 W/m² | - |
| 1788308949 | 25.56° C | 96% | 1017.9 hPa | 0 mm | - | 0 W/m² | - |
| 1788308649 | 25.56° C | 96% | 1017.9 hPa | 0 mm | - | 0 W/m² | - |
| 1788308343 | 25.56° C | 96% | 1018.1 hPa | 0 mm | - | 0 W/m² | - |
| 1788308038 | 25.56° C | 96% | 1018 hPa | 0 mm | - | 0 W/m² | - |
| 1788307733 | 25.56° C | 96% | 1018.1 hPa | 0 mm | - | 0 W/m² | - |
| 1788307433 | 25.56° C | 96% | 1018.2 hPa | 0 mm | - | 0 W/m² | - |
| 1788307129 | 25.56° C | 96% | 1018.2 hPa | 0 mm | - | 0 W/m² | - |
| 1788306828 | 25.56° C | 96% | 1017.8 hPa | 0 mm | - | 1 W/m² | - |
| 1788306524 | 25.56° C | 96% | 1018 hPa | 0 mm | - | 1 W/m² | - |
| 1788306221 | 25.56° C | 95% | 1017.9 hPa | 0 mm | - | 2 W/m² | - |
| 1788305913 | 25.56° C | 95% | 1018.2 hPa | 0 mm | - | 4 W/m² | - |
| 1788305609 | 25.56° C | 95% | 1018.2 hPa | 0 mm | - | 6 W/m² | - |
| 1788305304 | 25.56° C | 95% | 1018 hPa | 0 mm | - | 9 W/m² | - |
| 1788304999 | 25.56° C | 95% | 1017.8 hPa | 0 mm | - | 10 W/m² | - |
| 1788304695 | 25.56° C | 95% | 1017.9 hPa | 0 mm | - | 12 W/m² | - |
| 1788304391 | 25.56° C | 95% | 1018 hPa | 0 mm | - | 17 W/m² | - |
| 1788304088 | 25.56° C | 95% | 1018 hPa | 0 mm | - | 21 W/m² | - |
| 1788303786 | 25.56° C | 95% | 1017.7 hPa | 0 mm | - | 30 W/m² | - |
| 1788303482 | 25.56° C | 95% | 1017.5 hPa | 0 mm | - | 33 W/m² | - |
| 1788303182 | 25.56° C | 95% | 1017.6 hPa | 0 mm | - | 35 W/m² | - |
| 1788302877 | 25° C | 95% | 1017.5 hPa | 0 mm | - | 37 W/m² | - |
* Rain latest hour (hover to see other rain measurements)
** Current wind speed in m/s (hover to see current wind gust speed)